Location: Hannover
(52.4091°N, 9.7504°E)
Time: 17:07:00
(UTC+01:00)

ISS - Pass Details

Date: 16 November 2025
Orbit: 416 x 420 km, 51.6° (Epoch: 12 December)

Event Time Altitude Azimuth Distance (km) Brightness Sun altitude
Rises 18:56:14 0° 240° (WSW) 2,364 1.1 -22.5°
Reaches altitude 10° 18:58:22 10° 235° (SW) 1,500 -0.2 -22.8°
Enters shadow 19:00:29 32° 213° (SSW) 744 -2.3 -23.2°
